FW2664 Weather Reports


Display with metric or nautical units.
time (UTC)temp
F
wind
direction
speed
MPH
gust
MPH
rain 1hr
in
rain 24hr
in
rain mn
in
humidity
%
barometer
mb
20210803112044 60 0.0 0.0 0.00 0.00 0.00 99 1020.3
20210803111040 60 0.0 0.0 0.00 0.00 0.00 99 1020.2
20210803110037 60 0.0 0.0 0.00 0.00 0.00 99 1020.1
20210803105034 60 0.0 0.0 0.00 0.00 0.00 99 1020.1
20210803104030 60 0.0 0.0 0.00 0.00 0.00 99 1020.0
20210803103026 61 0.0 0.0 0.00 0.00 0.00 99 1020.0
20210803102023 61 0.0 0.0 0.00 0.00 0.00 99 1019.9
20210803101019 61 0.0 0.0 0.00 0.00 0.00 98 1019.9
20210803100016 61 0.0 0.0 0.00 0.00 0.00 98 1019.9
20210803095112 61 0.0 0.0 0.00 0.00 0.00 97 1019.8
20210803094109 61 0.0 0.0 0.00 0.00 0.00 96 1019.8
20210803093104 61 0.0 0.0 0.00 0.00 0.00 96 1019.8
20210803092100 61 0.0 0.0 0.00 0.00 0.00 95 1019.8
20210803091056 61 0.0 0.0 0.00 0.00 0.00 95 1019.7
20210803090053 62 0.0 0.0 0.00 0.00 0.00 94 1019.7
20210803085049 62 0.0 0.0 0.00 0.00 0.00 94 1019.8
20210803084045 62 0.0 0.0 0.00 0.00 0.00 93 1019.7
20210803083041 62 0.0 0.0 0.00 0.00 0.00 93 1019.8
20210803082037 62 0.0 0.0 0.00 0.00 0.00 93 1019.7
20210803081033 62 0.0 0.0 0.00 0.00 0.00 92 1019.7
20210803080029 62 0.0 0.0 0.00 0.00 0.00 92 1019.7
20210803075026 62 0.0 0.0 0.00 0.00 0.00 92 1019.7
20210803074023 63 0.0 0.0 0.00 0.00 0.00 92 1019.7
20210803073019 63 0.0 0.0 0.00 0.00 0.00 91 1019.9
20210803072016 63 0.0 0.0 0.00 0.00 0.00 91 1019.8
20210803071113 63 0.0 0.0 0.00 0.00 0.00 90 1020.0
20210803070109 63 0.0 0.0 0.00 0.00 0.00 90 1019.8
20210803065045 64 0.0 0.0 0.00 0.00 0.00 87 1019.9
20210803064041 63 0.0 0.0 0.00 0.00 0.00 87 1020.1
20210803063038 64 0.0 0.0 0.00 0.00 0.00 85 1020.1
20210803062035 64 0.0 0.0 0.00 0.00 0.00 85 1020.0
20210803061032 64 0.0 0.0 0.00 0.00 0.00 84 1020.1
20210803060027 64 0.0 0.0 0.00 0.00 0.00 85 1020.3
20210803055025 64 0.0 0.0 0.00 0.00 0.00 84 1020.3
20210803054021 64 0.0 0.0 0.00 0.00 0.00 84 1020.4
20210803053017 65 0.0 0.0 0.00 0.00 0.00 84 1020.4
20210803052114 64 0.0 0.0 0.00 0.00 0.00 83 1020.5
20210803051110 65 0.0 0.0 0.00 0.00 0.00 81 1020.5
20210803045556 65 0.0 0.0 0.00 0.00 0.00 80 1020.6
20210803044552 66 0.0 0.0 0.00 0.00 0.00 80 1020.6
20210803043549 66 0.0 0.0 0.00 0.00 0.00 79 1020.7
20210803042545 66 0.0 0.0 0.00 0.00 0.00 79 1020.7
20210803041542 66 0.0 0.0 0.00 0.00 0.00 78 1020.6
20210803040537 67 0.0 0.0 0.00 0.00 0.00 78 1020.7
20210803035534 67 0.0 0.0 0.00 0.00 0.00 77 1020.7
20210803034530 67 0.0 0.0 0.00 0.00 0.00 76 1020.7
20210803033527 68 0.0 0.0 0.00 0.00 0.00 75 1020.7
20210803032524 68 0.0 0.0 0.00 0.00 0.00 74 1020.8
20210803031520 68 0.0 0.0 0.00 0.00 0.00 73 1020.7
20210803030517 69 0.0 0.0 0.00 0.00 0.00 72 1020.8
20210803025614 69 0.0 0.0 0.00 0.00 0.00 71 1020.8
20210803024610 70 0.0 0.0 0.00 0.00 0.00 70 1020.8
20210803023607 70 0.0 0.0 0.00 0.00 0.00 70 1020.8
20210803022603 70 0.0 0.0 0.00 0.00 0.00 70 1020.7
20210803021600 71 0.0 0.0 0.00 0.00 0.00 66 1020.6
20210803020556 72 0.0 0.0 0.00 0.00 0.00 64 1020.4
20210803015552 73 0.0 1.0 0.00 0.00 0.00 61 1020.4
20210803014549 74 0 1.0 3.0 0.00 0.00 0.00 60 1020.4
20210803013545 75 0 1.0 3.0 0.00 0.00 0.00 60 1020.4
20210803012542 74 0 1.0 3.0 0.00 0.00 0.00 61 1020.3
20210803011538 75 0 1.0 2.0 0.00 0.00 0.00 60 1020.2
20210803010535 76 0.0 0.0 0.00 0.00 0.00 58 1020.2
20210803005531 76 333 1.0 2.0 0.00 0.00 0.00 58 1020.2
20210803004528 77 328 2.0 3.0 0.00 0.00 0.00 55 1020.1
20210803003525 77 0 1.0 3.0 0.00 0.00 0.00 56 1020.1
20210803002521 78 270 0.0 1.0 0.00 0.00 0.00 55 1020.1
20210803001517 79 0 2.0 4.0 0.00 0.00 0.00 52 1020.0
20210803000614 79 35 2.0 3.0 0.00 0.00 0.00 52 1019.8
20210802235611 80 349 1.0 4.0 0.00 0.00 0.00 51 1019.8
20210802234607 80 0 2.0 4.0 0.00 0.00 0.00 50 1019.8
20210802233604 81 2 2.0 4.0 0.00 0.00 0.00 50 1019.6
20210802232600 81 352 2.0 3.0 0.00 0.00 0.00 49 1019.5
20210802231556 81 350 3.0 4.0 0.00 0.00 0.00 48 1019.5
20210802230553 82 90 2.0 3.0 0.00 0.00 0.00 44 1019.4
20210802225550 82 359 2.0 4.0 0.00 0.00 0.00 46 1019.3
20210802224546 83 320 2.0 5.0 0.00 0.00 0.00 44 1019.3
20210802223543 83 90 1.0 2.0 0.00 0.00 0.00 45 1019.4
20210802222540 83 15 1.0 3.0 0.00 0.00 0.00 44 1019.4
20210802221536 82 355 2.0 5.0 0.00 0.00 0.00 43 1019.5
20210802220532 82 11 2.0 3.0 0.00 0.00 0.00 45 1019.7
20210802215529 83 26 3.0 5.0 0.00 0.00 0.00 44 1019.7
20210802214525 83 0.0 0.0 0.00 0.00 0.00 47 1019.8
20210802213522 82 39 1.0 3.0 0.00 0.00 0.00 45 1019.9
20210802212519 83 23 2.0 3.0 0.00 0.00 0.00 43 1019.8
20210802211515 83 90 3.0 6.0 0.00 0.00 0.00 42 1019.9
20210802210611 85 22 2.0 6.0 0.00 0.00 0.00 42 1019.9
20210802205608 84 67 2.0 5.0 0.00 0.00 0.00 44 1019.9
20210802204605 86 18 1.0 3.0 0.00 0.00 0.00 43 1020.1
20210802203602 83 9 1.0 3.0 0.00 0.00 0.00 45 1020.1
20210802202558 83 82 3.0 5.0 0.00 0.00 0.00 43 1020.1
20210802201554 84 99 4.0 5.0 0.00 0.00 0.00 44 1020.2
20210802200551 83 75 5.0 9.0 0.00 0.00 0.00 44 1020.3
20210802195548 83 20 5.0 10.0 0.00 0.00 0.00 43 1020.3
20210802194544 84 82 4.0 7.0 0.00 0.00 0.00 45 1020.4
20210802193540 84 16 4.0 6.0 0.00 0.00 0.00 47 1020.4
20210802192535 83 42 4.0 7.0 0.00 0.00 0.00 47 1020.4
20210802191531 83 84 4.0 6.0 0.00 0.00 0.00 46 1020.6
20210802190528 83 67 4.0 6.0 0.00 0.00 0.00 45 1020.8
20210802185524 84 11 2.0 4.0 0.00 0.00 0.00 48 1020.9
20210802184521 84 29 3.0 4.0 0.00 0.00 0.00 46 1020.8
20210802183519 83 78 5.0 10.0 0.00 0.00 0.00 45 1020.9
20210802182614 83 5 4.0 9.0 0.00 0.00 0.00 47 1021.0
20210802181611 83 69 3.0 4.0 0.00 0.00 0.00 51 1021.1
20210802180608 83 90 4.0 5.0 0.00 0.00 0.00 52 1021.4
20210802175604 83 61 3.0 7.0 0.00 0.00 0.00 50 1021.5
20210802174601 82 55 5.0 7.0 0.00 0.00 0.00 50 1021.5
20210802173557 83 90 3.0 7.0 0.00 0.00 0.00 51 1022.0
20210802172554 84 354 2.0 4.0 0.00 0.00 0.00 50 1022.0
20210802171551 83 57 3.0 7.0 0.00 0.00 0.00 52 1022.1
20210802170548 83 67 2.0 5.0 0.00 0.00 0.00 53 1022.0
20210802165543 82 81 4.0 6.0 0.00 0.00 0.00 54 1022.0
20210802164540 82 67 4.0 6.0 0.00 0.00 0.00 57 1022.1
20210802163537 81 77 4.0 5.0 0.00 0.00 0.00 60 1022.2
20210802162531 81 84 3.0 7.0 0.00 0.00 0.00 59 1022.2
20210802161528 79 90 3.0 6.0 0.00 0.00 0.00 62 1022.2
20210802160524 79 45 5.0 5.0 0.00 0.00 0.00 61 1022.2
20210802155521 78 37 3.0 5.0 0.00 0.00 0.00 63 1022.4
20210802154518 79 39 2.0 7.0 0.00 0.00 0.00 64 1022.4
20210802153614 78 90 3.0 5.0 0.00 0.00 0.00 64 1022.5
20210802152611 77 81 4.0 6.0 0.00 0.00 0.00 64 1022.4
20210802151607 77 54 2.0 6.0 0.00 0.00 0.00 66 1022.3
20210802150604 76 45 4.0 6.0 0.00 0.01 0.00 66 1022.2
20210802145600 75 36 3.0 5.0 0.00 0.01 0.00 67 1022.1
20210802144556 75 79 3.0 5.0 0.00 0.01 0.00 68 1022.0
20210802143553 75 65 3.0 6.0 0.00 0.01 0.00 69 1022.1
20210802142549 75 90 2.0 5.0 0.00 0.01 0.00 70 1022.1
20210802141546 74 32 3.0 6.0 0.00 0.01 0.00 69 1022.1
20210802140542 74 90 2.0 3.0 0.00 0.01 0.00 71 1022.2
20210802135539 73 90 2.0 4.0 0.00 0.01 0.00 70 1022.2
20210802134535 74 63 1.0 3.0 0.00 0.01 0.00 72 1022.4
20210802133532 73 100 2.0 4.0 0.00 0.01 0.00 72 1022.4
20210802132528 72 78 2.0 3.0 0.00 0.01 0.00 75 1022.4
20210802131524 72 39 2.0 4.0 0.00 0.01 0.00 75 1022.4
20210802130521 72 349 2.0 3.0 0.00 0.01 0.00 77 1022.2
20210802125517 71 45 2.0 4.0 0.00 0.01 0.00 79 1022.3
20210802124614 70 48 3.0 6.0 0.00 0.01 0.00 81 1022.1
20210802123610 71 45 2.0 5.0 0.00 0.01 0.00 85 1022.2
20210802122607 70 82 2.0 5.0 0.00 0.01 0.00 97 1022.1
20210802121604 68 70 2.0 4.0 0.00 0.01 0.00 99 1022.0
20210802120601 67 90 1.0 2.0 0.00 0.01 0.00 99 1022.0
20210802115557 67 0.0 0.0 0.00 0.01 0.00 99 1021.9
20210802114554 66 0.0 0.0 0.00 0.01 0.00 99 1021.8
20210802113550 65 0.0 0.0 0.00 0.01 0.00 99 1021.6